Terug naar catalogus

FREGAT DEB

LostUNKNOWN
NORAD 45629·DEBRIS·🇷🇺 Russia

Gelanceerd Jul 18, 2011 vanaf Baikonur Cosmodrome

Loading…

Volgende Passages (komende 24 uur)

TLE

VerouderdSource: Space-Track

Epoch: Sep 17, 2022, 16:02 UTC

1 45629U 11037V   22260.66871784  .00087376  00000-0  15680-1 0  9999
2 45629  51.3927   6.5187 1673424 253.0340  88.1036 11.76609108 96837

Volg FREGAT DEB in realtime met AllMySat

Download on the App Store